Opa Locka, FL

10:29 AM EDT on June 26, 2017 (GMT -0400)
Opa Locka

Weather History for KOPF - November, 2013

Change the Weather History Date:

Monday, November 4, 2013

  Actual Average Record
Temperature  
Mean Temperature 78 °F -  
Max Temperature 82 °F 83 °F 91 °F (1988)
Min Temperature 75 °F 67 °F 44 °F (1966)
Cooling Degree Days 14    
Growing Degree Days 28 (Base 50)    
Moisture  
Dew Point 63 °F    
Average Humidity 59    
Maximum Humidity 74    
Minimum Humidity 41    
Precipitation  
Precipitation 0.00 in - - ()
Sea Level Pressure  
Sea Level Pressure 30.04 in    
Wind  
Wind Speed 15 mph (ENE)    
Max Wind Speed 21 mph    
Max Gust Speed 30 mph    
Visibility 10 miles    
Events Rain    
Averages and records for this station are not official NWS values.
T = Trace of Precipitation, MM = Missing Value Source: NWS Daily Summary

Daily Weather History Graph

Daily Weather History Graph

Search for Another Location

Airport or City:

Trip Planner

Search our weather history database for the weather conditions in past years. The results will help you decide how hot, cold, wet, or windy it might be!

Date:

Astronomy

Nov. 04, 2013 Rise Set
Actual Time 6:31 AM EST 5:37 PM EST
Civil Twilight 6:07 AM EST 6:01 PM EST
Nautical Twilight 5:40 AM EST 6:28 PM EST
Astronomical Twilight 5:13 AM EST 6:55 PM EST
Moon 7:35 AM EST (11/4) 6:47 PM EST (11/4)
Length of Visible Light 11h 53m
Length of Day
11h 05m
New Moon, 2% of the Moon is Illuminated
Nov 4
New Moon
Nov 10
First Quarter
Nov 17
Full
Nov 25
Last Quarter
Dec 2
New

Hourly Weather History & Observations

Time (EST) Temp. Heat Index Dew Point Humidity Pressure Visibility Wind Dir Wind Speed Gust Speed Precip Events Conditions
12:53 AM 75.9 °F - 61.0 °F 60% 30.02 in 10.0 mi ENE 13.8 mph 21.9 mph N/A   Partly Cloudy
1:53 AM 75.9 °F - 61.0 °F 60% 30.02 in 10.0 mi ENE 12.7 mph - N/A   Partly Cloudy
2:53 AM 75.9 °F - 61.0 °F 60% 30.01 in 10.0 mi NE 12.7 mph 21.9 mph N/A   Partly Cloudy
3:53 AM 75.9 °F - 61.0 °F 60% 30.01 in 10.0 mi ENE 15.0 mph 20.7 mph N/A   Mostly Cloudy
4:53 AM 75.9 °F - 61.0 °F 60% 30.01 in 10.0 mi ENE 16.1 mph 26.5 mph N/A   Scattered Clouds
5:53 AM 75.0 °F - 59.0 °F 57% 30.02 in 10.0 mi ENE 17.3 mph 23.0 mph N/A   Clear
6:53 AM 75.0 °F - 59.0 °F 57% 30.03 in 10.0 mi ENE 10.4 mph - N/A   Partly Cloudy
7:53 AM 77.0 °F - 59.0 °F 54% 30.06 in 10.0 mi NE 12.7 mph - N/A   Scattered Clouds
8:53 AM 80.1 °F 80.2 °F 55.9 °F 43% 30.08 in 10.0 mi NE 16.1 mph - N/A   Clear
9:53 AM 81.0 °F 80.7 °F 55.0 °F 41% 30.08 in 10.0 mi NE 12.7 mph 21.9 mph N/A   Clear
10:53 AM 82.9 °F 82.4 °F 57.0 °F 41% 30.07 in 10.0 mi ENE 16.1 mph 24.2 mph N/A   Clear
11:53 AM 82.0 °F 83.1 °F 63.0 °F 52% 30.05 in 10.0 mi NE 19.6 mph 27.6 mph N/A   Scattered Clouds
12:53 PM 81.0 °F 82.7 °F 64.9 °F 58% 30.03 in 7.0 mi ENE 20.7 mph 25.3 mph N/A   Mostly Cloudy
1:53 PM 80.1 °F 82.1 °F 66.0 °F 62% 30.02 in 10.0 mi NE 19.6 mph 27.6 mph N/A   Mostly Cloudy
2:53 PM 80.1 °F 82.3 °F 66.9 °F 64% 30.01 in 10.0 mi ENE 20.7 mph 27.6 mph 0.00 in   Overcast
3:53 PM 78.1 °F - 66.9 °F 68% 30.03 in 10.0 mi ENE 17.3 mph 26.5 mph 0.00 in   Overcast
4:53 PM 79.0 °F - 66.0 °F 64% 30.02 in 10.0 mi NE 19.6 mph 25.3 mph N/A   Overcast
5:53 PM 78.1 °F - 64.9 °F 64% 30.03 in 10.0 mi ENE 18.4 mph 27.6 mph N/A   Overcast
6:53 PM 77.0 °F - 66.0 °F 69% 30.04 in 10.0 mi ENE 19.6 mph 27.6 mph 0.00 in Rain Light Rain
7:53 PM 75.9 °F - 66.9 °F 74% 30.06 in 10.0 mi ENE 19.6 mph 27.6 mph 0.00 in   Overcast
8:53 PM 78.1 °F - 64.0 °F 62% 30.07 in 10.0 mi ENE 18.4 mph 29.9 mph N/A   Overcast
9:53 PM 77.0 °F - 64.0 °F 64% 30.07 in 10.0 mi ENE 15.0 mph - N/A   Scattered Clouds
10:53 PM 77.0 °F - 64.9 °F 66% 30.06 in 10.0 mi ENE 12.7 mph - N/A   Mostly Cloudy
11:53 PM 78.1 °F - 66.0 °F 66% 30.06 in 10.0 mi ENE 19.6 mph 26.5 mph N/A   Overcast